Location: Palmerston North
(40.3500°S, 175.6170°E)
Time: 17:04:57
(UTC+13:00)

Cosmos 1844 Rocket - Pass Details

Date: 24 January 2019
Orbit: 825 x 844 km, 71.0° (Epoch: 23 October)

Event Time Altitude Azimuth Distance (km) Brightness Sun altitude
Rises 22:36:08 0° 197° (SSW) 3,408 7.0 -18.1°
Reaches altitude 10° 22:38:47 10° 188° (S) 2,471 5.9 -18.4°
Maximum altitude 22:44:00 37° 121° (ESE) 1,301 3.6 -19.1°
Enters shadow 22:46:08 27° 79° (E) 1,556 3.6 -19.3°
